Year,Month,Day,Hour,Minute,Value (Times are PST for temperature in C)
2009,05,24,00,00,10.60
2009,05,24,00,01,10.50
2009,05,24,00,02,10.50
2009,05,24,00,03,10.50
2009,05,24,00,04,10.40
2009,05,24,00,05,10.40
2009,05,24,00,06,10.40
2009,05,24,00,07,10.40
2009,05,24,00,08,10.40
2009,05,24,00,09,10.40
2009,05,24,00,10,10.40
2009,05,24,00,11,10.40
2009,05,24,00,12,10.40
2009,05,24,00,13,10.40
2009,05,24,00,14,10.40
2009,05,24,00,15,10.40
2009,05,24,00,16,10.40
2009,05,24,00,17,10.40
2009,05,24,00,18,10.40
2009,05,24,00,19,10.40
2009,05,24,00,20,10.40
2009,05,24,00,21,10.40
2009,05,24,00,22,10.40
2009,05,24,00,23,10.40
2009,05,24,00,24,10.40
2009,05,24,00,25,10.40
2009,05,24,00,26,10.40
2009,05,24,00,27,10.40
2009,05,24,00,28,10.40
2009,05,24,00,29,10.40
2009,05,24,00,30,10.40
2009,05,24,00,31,10.30
2009,05,24,00,32,10.30
2009,05,24,00,33,10.30
2009,05,24,00,34,10.30
2009,05,24,00,35,10.30
2009,05,24,00,36,10.30
2009,05,24,00,37,10.30
2009,05,24,00,38,10.20
2009,05,24,00,39,10.20
2009,05,24,00,40,10.20
2009,05,24,00,41,10.20
2009,05,24,00,42,10.20
2009,05,24,00,43,10.20
2009,05,24,00,44,10.20
2009,05,24,00,45,10.20
2009,05,24,00,46,10.20
2009,05,24,00,47,10.10
2009,05,24,00,48,10.10
2009,05,24,00,49,10.10
2009,05,24,00,50,10.10
2009,05,24,00,51,10.10
2009,05,24,00,52,10.10
2009,05,24,00,53,10.10
2009,05,24,00,54,10.10
2009,05,24,00,55,10.10
2009,05,24,00,56,10.10
2009,05,24,00,57,10.10
2009,05,24,00,58,10.10
2009,05,24,00,59,10.00
2009,05,24,01,00,10.00
2009,05,24,01,01,10.00
2009,05,24,01,02,9.90
2009,05,24,01,03,9.90
2009,05,24,01,04,9.90
2009,05,24,01,05,9.90
2009,05,24,01,06,9.90
2009,05,24,01,07,9.90
2009,05,24,01,08,9.90
2009,05,24,01,09,9.80
2009,05,24,01,10,9.80
2009,05,24,01,11,9.80
2009,05,24,01,12,9.80
2009,05,24,01,13,9.80
2009,05,24,01,14,9.80
2009,05,24,01,15,9.80
2009,05,24,01,16,9.80
2009,05,24,01,17,9.80
2009,05,24,01,18,9.80
2009,05,24,01,19,9.70
2009,05,24,01,20,9.70
2009,05,24,01,21,9.70
2009,05,24,01,22,9.70
2009,05,24,01,23,9.70
2009,05,24,01,24,9.60
2009,05,24,01,25,9.60
2009,05,24,01,26,9.60
2009,05,24,01,27,9.60
2009,05,24,01,28,9.60
2009,05,24,01,29,9.60
2009,05,24,01,30,9.60
2009,05,24,01,31,9.60
2009,05,24,01,32,9.60
2009,05,24,01,33,9.60
2009,05,24,01,34,9.60
2009,05,24,01,35,9.60
2009,05,24,01,36,9.60
2009,05,24,01,37,9.60
2009,05,24,01,38,9.60
2009,05,24,01,39,9.60
2009,05,24,01,40,9.60
2009,05,24,01,41,9.60
2009,05,24,01,42,9.60
2009,05,24,01,43,9.60
2009,05,24,01,44,9.60
2009,05,24,01,45,9.50
2009,05,24,01,46,9.50
2009,05,24,01,47,9.50
2009,05,24,01,48,9.50
2009,05,24,01,49,9.50
2009,05,24,01,50,9.40
2009,05,24,01,51,9.40
2009,05,24,01,52,9.40
2009,05,24,01,53,9.40
2009,05,24,01,54,9.40
2009,05,24,01,55,9.40
2009,05,24,01,56,9.40
2009,05,24,01,57,9.40
2009,05,24,01,58,9.30
2009,05,24,01,59,9.30
2009,05,24,02,00,9.30
2009,05,24,02,01,9.30
2009,05,24,02,02,9.30
2009,05,24,02,03,9.30
2009,05,24,02,04,9.20
2009,05,24,02,05,9.20
2009,05,24,02,06,9.20
2009,05,24,02,07,9.20
2009,05,24,02,08,9.20
2009,05,24,02,09,9.20
2009,05,24,02,10,9.20
2009,05,24,02,11,9.20
2009,05,24,02,12,9.20
2009,05,24,02,13,9.20
2009,05,24,02,14,9.20
2009,05,24,02,15,9.20
2009,05,24,02,16,9.10
2009,05,24,02,17,9.10
2009,05,24,02,18,9.10
2009,05,24,02,19,9.10
2009,05,24,02,20,9.10
2009,05,24,02,21,9.00
2009,05,24,02,22,9.00
2009,05,24,02,23,9.00
2009,05,24,02,24,9.00
2009,05,24,02,25,8.90
2009,05,24,02,26,8.90
2009,05,24,02,27,8.90
2009,05,24,02,28,8.90
2009,05,24,02,29,8.90
2009,05,24,02,30,8.90
2009,05,24,02,31,8.90
2009,05,24,02,32,8.90
2009,05,24,02,33,8.90
2009,05,24,02,34,8.90
2009,05,24,02,35,8.90
2009,05,24,02,36,8.80
2009,05,24,02,37,8.80
2009,05,24,02,38,8.80
2009,05,24,02,39,8.80
2009,05,24,02,40,8.80
2009,05,24,02,41,8.80
2009,05,24,02,42,8.80
2009,05,24,02,43,8.80
2009,05,24,02,44,8.70
2009,05,24,02,45,8.70
2009,05,24,02,46,8.70
2009,05,24,02,47,8.70
2009,05,24,02,48,8.60
2009,05,24,02,49,8.60
2009,05,24,02,50,8.60
2009,05,24,02,51,8.60
2009,05,24,02,52,8.60
2009,05,24,02,53,8.60
2009,05,24,02,54,8.60
2009,05,24,02,55,8.60
2009,05,24,02,56,8.60
2009,05,24,02,57,8.60
2009,05,24,02,58,8.60
2009,05,24,02,59,8.60
2009,05,24,03,00,8.60
2009,05,24,03,01,8.60
2009,05,24,03,02,8.60
2009,05,24,03,03,8.60
2009,05,24,03,04,8.60
2009,05,24,03,05,8.60
2009,05,24,03,06,8.60
2009,05,24,03,07,8.50
2009,05,24,03,08,8.50
2009,05,24,03,09,8.40
2009,05,24,03,10,8.40
2009,05,24,03,11,8.40
2009,05,24,03,12,8.40
2009,05,24,03,13,8.40
2009,05,24,03,14,8.30
2009,05,24,03,15,8.30
2009,05,24,03,16,8.30
2009,05,24,03,17,8.30
2009,05,24,03,18,8.30
2009,05,24,03,19,8.30
2009,05,24,03,20,8.30
2009,05,24,03,21,8.30
2009,05,24,03,22,8.30
2009,05,24,03,23,8.30
2009,05,24,03,24,8.20
2009,05,24,03,25,8.20
2009,05,24,03,26,8.20
2009,05,24,03,27,8.20
2009,05,24,03,28,8.20
2009,05,24,03,29,8.20
2009,05,24,03,30,8.10
2009,05,24,03,31,8.10
2009,05,24,03,32,8.10
2009,05,24,03,33,8.10
2009,05,24,03,34,8.10
2009,05,24,03,35,8.10
2009,05,24,03,36,8.10
2009,05,24,03,37,8.10
2009,05,24,03,38,8.10
2009,05,24,03,39,8.10
2009,05,24,03,40,8.10
2009,05,24,03,41,8.10
2009,05,24,03,42,8.10
2009,05,24,03,43,8.10
2009,05,24,03,44,8.10
2009,05,24,03,45,8.10
2009,05,24,03,46,8.10
2009,05,24,03,47,8.10
2009,05,24,03,48,8.10
2009,05,24,03,49,8.10
2009,05,24,03,50,8.10
2009,05,24,03,51,8.10
2009,05,24,03,52,8.10
2009,05,24,03,53,8.10
2009,05,24,03,54,8.10
2009,05,24,03,55,8.00
2009,05,24,03,56,8.00
2009,05,24,03,57,7.90
2009,05,24,03,58,7.90
2009,05,24,03,59,7.90
2009,05,24,04,00,7.90
2009,05,24,04,01,7.80
2009,05,24,04,02,7.80
2009,05,24,04,03,7.80
2009,05,24,04,04,7.80
2009,05,24,04,05,7.80
2009,05,24,04,06,7.80
2009,05,24,04,07,7.70
2009,05,24,04,08,7.70
2009,05,24,04,09,7.70
2009,05,24,04,10,7.70
2009,05,24,04,11,7.70
2009,05,24,04,12,7.70
2009,05,24,04,13,7.70
2009,05,24,04,14,7.70
2009,05,24,04,15,7.70
2009,05,24,04,16,7.70
2009,05,24,04,17,7.70
2009,05,24,04,18,7.70
2009,05,24,04,19,7.70
2009,05,24,04,20,7.70
2009,05,24,04,21,7.60
2009,05,24,04,22,7.60
2009,05,24,04,23,7.60
2009,05,24,04,24,7.60
2009,05,24,04,25,7.60
2009,05,24,04,26,7.60
2009,05,24,04,27,7.60
2009,05,24,04,28,7.50
2009,05,24,04,29,7.50
2009,05,24,04,30,7.50
2009,05,24,04,31,7.50
2009,05,24,04,32,7.50
2009,05,24,04,33,7.50
2009,05,24,04,34,7.50
2009,05,24,04,35,7.50
2009,05,24,04,36,7.50
2009,05,24,04,37,7.50
2009,05,24,04,38,7.50
2009,05,24,04,39,7.50
2009,05,24,04,40,7.50
2009,05,24,04,41,7.50
2009,05,24,04,42,7.50
2009,05,24,04,43,7.50
2009,05,24,04,44,7.50
2009,05,24,04,45,7.50
2009,05,24,04,46,7.40
2009,05,24,04,47,7.40
2009,05,24,04,48,7.40
2009,05,24,04,49,7.40
2009,05,24,04,50,7.40
2009,05,24,04,51,7.40
2009,05,24,04,52,7.40
2009,05,24,04,53,7.40
2009,05,24,04,54,7.40
2009,05,24,04,55,7.40
2009,05,24,04,56,7.40
2009,05,24,04,57,7.40
2009,05,24,04,58,7.40
2009,05,24,04,59,7.40
2009,05,24,05,00,7.40
2009,05,24,05,01,7.40
2009,05,24,05,02,7.40
2009,05,24,05,03,7.40
2009,05,24,05,04,7.40
2009,05,24,05,05,7.40
2009,05,24,05,06,7.30
2009,05,24,05,07,7.30
2009,05,24,05,08,7.30
2009,05,24,05,09,7.30
2009,05,24,05,10,7.30
2009,05,24,05,11,7.30
2009,05,24,05,12,7.30
2009,05,24,05,13,7.20
2009,05,24,05,14,7.20
2009,05,24,05,15,7.20
2009,05,24,05,16,7.20
2009,05,24,05,17,7.20
2009,05,24,05,18,7.20
2009,05,24,05,19,7.20
2009,05,24,05,20,7.20
2009,05,24,05,21,7.20
2009,05,24,05,22,7.20
2009,05,24,05,23,7.20
2009,05,24,05,24,7.20
2009,05,24,05,25,7.20
2009,05,24,05,26,7.20
2009,05,24,05,27,7.20
2009,05,24,05,28,7.20
2009,05,24,05,29,7.20
2009,05,24,05,30,7.20
2009,05,24,05,31,7.20
2009,05,24,05,32,7.20
2009,05,24,05,33,7.20
2009,05,24,05,34,7.20
2009,05,24,05,35,7.20
2009,05,24,05,36,7.20
2009,05,24,05,37,7.20
2009,05,24,05,38,7.20
2009,05,24,05,39,7.20
2009,05,24,05,40,7.20
2009,05,24,05,41,7.20
2009,05,24,05,42,7.20
2009,05,24,05,43,7.20
2009,05,24,05,44,7.20
2009,05,24,05,45,7.20
2009,05,24,05,46,7.20
2009,05,24,05,47,7.20
2009,05,24,05,48,7.20
2009,05,24,05,49,7.20
2009,05,24,05,50,7.20
2009,05,24,05,51,7.20
2009,05,24,05,52,7.20
2009,05,24,05,53,7.20
2009,05,24,05,54,7.20
2009,05,24,05,55,7.20
2009,05,24,05,56,7.20
2009,05,24,05,57,7.20
2009,05,24,05,58,7.20
2009,05,24,05,59,7.20
2009,05,24,06,00,7.20
2009,05,24,06,01,7.20
2009,05,24,06,02,7.20
2009,05,24,06,03,7.30
2009,05,24,06,04,7.20
2009,05,24,06,05,7.30
2009,05,24,06,06,7.30
2009,05,24,06,07,7.20
2009,05,24,06,08,7.20
2009,05,24,06,09,7.20
2009,05,24,06,10,7.20
2009,05,24,06,11,7.20
2009,05,24,06,12,7.20
2009,05,24,06,13,7.20
2009,05,24,06,14,7.20
2009,05,24,06,15,7.20
2009,05,24,06,16,7.20
2009,05,24,06,17,7.20
2009,05,24,06,18,7.20
2009,05,24,06,19,7.20
2009,05,24,06,20,7.30
2009,05,24,06,21,7.30
2009,05,24,06,22,7.30
2009,05,24,06,23,7.30
2009,05,24,06,24,7.30
2009,05,24,06,25,7.40
2009,05,24,06,26,7.40
2009,05,24,06,27,7.40
2009,05,24,06,28,7.40
2009,05,24,06,29,7.40
2009,05,24,06,30,7.40
2009,05,24,06,31,7.40
2009,05,24,06,32,7.40
2009,05,24,06,33,7.40
2009,05,24,06,34,7.40
2009,05,24,06,35,7.40
2009,05,24,06,36,7.50
2009,05,24,06,37,7.50
2009,05,24,06,38,7.50
2009,05,24,06,39,7.60
2009,05,24,06,40,7.60
2009,05,24,06,41,7.60
2009,05,24,06,42,7.60
2009,05,24,06,43,7.60
2009,05,24,06,44,7.60
2009,05,24,06,45,7.60
2009,05,24,06,46,7.60
2009,05,24,06,47,7.70
2009,05,24,06,48,7.70
2009,05,24,06,49,7.70
2009,05,24,06,50,7.70
2009,05,24,06,51,7.70
2009,05,24,06,52,7.80
2009,05,24,06,53,7.80
2009,05,24,06,54,7.80
2009,05,24,06,55,7.90
2009,05,24,06,56,7.90
2009,05,24,06,57,8.00
2009,05,24,06,58,8.10
2009,05,24,06,59,8.10
2009,05,24,07,00,8.20
2009,05,24,07,01,8.30
2009,05,24,07,02,8.40
2009,05,24,07,03,8.50
2009,05,24,07,04,8.60
2009,05,24,07,05,8.80
2009,05,24,07,06,8.90
2009,05,24,07,07,9.00
2009,05,24,07,08,9.10
2009,05,24,07,09,9.20
2009,05,24,07,10,9.30
2009,05,24,07,11,9.40
2009,05,24,07,12,9.50
2009,05,24,07,13,9.50
2009,05,24,07,14,9.60
2009,05,24,07,15,9.60
2009,05,24,07,16,9.70
2009,05,24,07,17,9.70
2009,05,24,07,18,9.80
2009,05,24,07,19,9.90
2009,05,24,07,20,10.00
2009,05,24,07,21,10.10
2009,05,24,07,22,10.10
2009,05,24,07,23,10.20
2009,05,24,07,24,10.30
2009,05,24,07,25,10.40
2009,05,24,07,26,10.50
2009,05,24,07,27,10.50
2009,05,24,07,28,10.60
2009,05,24,07,29,10.70
2009,05,24,07,30,10.80
2009,05,24,07,31,10.90
2009,05,24,07,32,10.90
2009,05,24,07,33,11.00
2009,05,24,07,34,11.10
2009,05,24,07,35,11.20
2009,05,24,07,36,11.30
2009,05,24,07,37,11.40
2009,05,24,07,38,11.40
2009,05,24,07,39,11.50
2009,05,24,07,40,11.50
2009,05,24,07,41,11.60
2009,05,24,07,42,11.70
2009,05,24,07,43,11.70
2009,05,24,07,44,11.80
2009,05,24,07,45,11.80
2009,05,24,07,46,11.90
2009,05,24,07,47,11.90
2009,05,24,07,48,12.00
2009,05,24,07,49,12.10
2009,05,24,07,50,12.20
2009,05,24,07,51,12.30
2009,05,24,07,52,12.40
2009,05,24,07,53,12.50
2009,05,24,07,54,12.60
2009,05,24,07,55,12.70
2009,05,24,07,56,12.90
2009,05,24,07,57,13.00
2009,05,24,07,58,13.10
2009,05,24,07,59,13.20
2009,05,24,08,00,13.30
2009,05,24,08,01,13.50
2009,05,24,08,02,13.60
2009,05,24,08,03,13.60
2009,05,24,08,04,13.70
2009,05,24,08,05,13.80
2009,05,24,08,06,13.90
2009,05,24,08,07,14.00
2009,05,24,08,08,14.10
2009,05,24,08,09,14.30
2009,05,24,08,10,14.30
2009,05,24,08,11,14.40
2009,05,24,08,12,14.50
2009,05,24,08,13,14.60
2009,05,24,08,14,14.60
2009,05,24,08,15,14.60
2009,05,24,08,16,14.70
2009,05,24,08,17,14.80
2009,05,24,08,18,14.80
2009,05,24,08,19,14.80
2009,05,24,08,20,14.90
2009,05,24,08,21,15.00
2009,05,24,08,22,15.00
2009,05,24,08,23,15.00
2009,05,24,08,24,15.00
2009,05,24,08,25,15.00
2009,05,24,08,26,15.00
2009,05,24,08,27,15.00
2009,05,24,08,28,15.00
2009,05,24,08,29,15.00
2009,05,24,08,30,15.00
2009,05,24,08,31,15.00
2009,05,24,08,32,15.00
2009,05,24,08,33,15.00
2009,05,24,08,34,15.00
2009,05,24,08,35,15.00
2009,05,24,08,36,15.00
2009,05,24,08,37,15.00
2009,05,24,08,38,15.00
2009,05,24,08,39,15.00
2009,05,24,08,40,15.00
2009,05,24,08,41,15.10
2009,05,24,08,42,15.20
2009,05,24,08,43,15.20
2009,05,24,08,44,15.30
2009,05,24,08,45,15.30
2009,05,24,08,46,15.30
2009,05,24,08,47,15.30
2009,05,24,08,48,15.20
2009,05,24,08,49,15.20
2009,05,24,08,50,15.10
2009,05,24,08,51,15.10
2009,05,24,08,52,15.20
2009,05,24,08,53,15.20
2009,05,24,08,54,15.10
2009,05,24,08,55,15.00
2009,05,24,08,56,15.00
2009,05,24,08,57,15.00
2009,05,24,08,58,15.00
2009,05,24,08,59,15.00
2009,05,24,09,00,15.00
2009,05,24,09,01,15.00
2009,05,24,09,02,15.00
2009,05,24,09,03,15.00
2009,05,24,09,04,15.00
2009,05,24,09,05,15.00
2009,05,24,09,06,15.00
2009,05,24,09,07,15.10
2009,05,24,09,08,15.20
2009,05,24,09,09,15.30
2009,05,24,09,10,15.40
2009,05,24,09,11,15.50
2009,05,24,09,12,15.50
2009,05,24,09,13,15.60
2009,05,24,09,14,15.60
2009,05,24,09,15,15.70
2009,05,24,09,16,15.70
2009,05,24,09,17,15.80
2009,05,24,09,18,15.80
2009,05,24,09,19,15.70
2009,05,24,09,20,15.70
2009,05,24,09,21,15.70
2009,05,24,09,22,15.70
2009,05,24,09,23,15.70
2009,05,24,09,24,15.70
2009,05,24,09,25,15.70
2009,05,24,09,26,15.70
2009,05,24,09,27,15.70
2009,05,24,09,28,15.70
2009,05,24,09,29,15.70
2009,05,24,09,30,15.70
2009,05,24,09,31,15.70
2009,05,24,09,32,15.70
2009,05,24,09,33,15.70
2009,05,24,09,34,15.70
2009,05,24,09,35,15.70
2009,05,24,09,36,15.80
2009,05,24,09,37,15.80
2009,05,24,09,38,15.90
2009,05,24,09,39,15.80
2009,05,24,09,40,15.80
2009,05,24,09,41,15.80
2009,05,24,09,42,15.70
2009,05,24,09,43,15.70
2009,05,24,09,44,15.60
2009,05,24,09,45,15.60
2009,05,24,09,46,15.60
2009,05,24,09,47,15.60
2009,05,24,09,48,15.60
2009,05,24,09,49,15.60
2009,05,24,09,50,15.60
2009,05,24,09,51,15.50
2009,05,24,09,52,15.50
2009,05,24,09,53,15.40
2009,05,24,09,54,15.40
2009,05,24,09,55,15.40
2009,05,24,09,56,15.40
2009,05,24,09,57,15.40
2009,05,24,09,58,15.40
2009,05,24,09,59,15.50
2009,05,24,10,00,15.60
2009,05,24,10,01,15.70
2009,05,24,10,02,15.80
2009,05,24,10,03,15.80
2009,05,24,10,04,15.90
2009,05,24,10,05,16.00
2009,05,24,10,06,16.10
2009,05,24,10,07,16.20
2009,05,24,10,08,16.20
2009,05,24,10,09,16.20
2009,05,24,10,10,16.10
2009,05,24,10,11,16.10
2009,05,24,10,12,16.10
2009,05,24,10,13,16.10
2009,05,24,10,14,16.10
2009,05,24,10,15,16.20
2009,05,24,10,16,16.30
2009,05,24,10,17,16.30
2009,05,24,10,18,16.30
2009,05,24,10,19,16.30
2009,05,24,10,20,16.30
2009,05,24,10,21,16.40
2009,05,24,10,22,16.40
2009,05,24,10,23,16.50
2009,05,24,10,24,16.50
2009,05,24,10,25,16.50
2009,05,24,10,26,16.50
2009,05,24,10,27,16.50
2009,05,24,10,28,16.50
2009,05,24,10,29,16.60
2009,05,24,10,30,16.60
2009,05,24,10,31,16.70
2009,05,24,10,32,16.70
2009,05,24,10,33,16.70
2009,05,24,10,34,16.60
2009,05,24,10,35,16.50
2009,05,24,10,36,16.40
2009,05,24,10,37,16.30
2009,05,24,10,38,16.40
2009,05,24,10,39,16.40
2009,05,24,10,40,16.40
2009,05,24,10,41,16.50
2009,05,24,10,42,16.50
2009,05,24,10,43,16.60
2009,05,24,10,44,16.60
2009,05,24,10,45,16.70
2009,05,24,10,46,16.80
2009,05,24,10,47,16.80
2009,05,24,10,48,16.80
2009,05,24,10,49,16.80
2009,05,24,10,50,16.80
2009,05,24,10,51,16.80
2009,05,24,10,52,16.80
2009,05,24,10,53,16.80
2009,05,24,10,54,16.90
2009,05,24,10,55,16.90
2009,05,24,10,56,16.90
2009,05,24,10,57,16.90
2009,05,24,10,58,16.90
2009,05,24,10,59,16.90
2009,05,24,11,00,16.90
2009,05,24,11,01,17.00
2009,05,24,11,02,16.90
2009,05,24,11,03,16.90
2009,05,24,11,04,16.90
2009,05,24,11,05,17.00
2009,05,24,11,06,17.00
2009,05,24,11,07,17.10
2009,05,24,11,08,17.10
2009,05,24,11,09,17.10
2009,05,24,11,10,17.20
2009,05,24,11,11,17.20
2009,05,24,11,12,17.30
2009,05,24,11,13,17.30
2009,05,24,11,14,17.40
2009,05,24,11,15,17.30
2009,05,24,11,16,17.30
2009,05,24,11,17,17.30
2009,05,24,11,18,17.20
2009,05,24,11,19,17.20
2009,05,24,11,20,17.20
2009,05,24,11,21,17.20
2009,05,24,11,22,17.20
2009,05,24,11,23,17.20
2009,05,24,11,24,17.10
2009,05,24,11,25,17.10
2009,05,24,11,26,17.00
2009,05,24,11,27,17.00
2009,05,24,11,28,16.90
2009,05,24,11,29,17.00
2009,05,24,11,30,17.10
2009,05,24,11,31,17.10
2009,05,24,11,32,17.20
2009,05,24,11,33,17.20
2009,05,24,11,34,17.20
2009,05,24,11,35,17.10
2009,05,24,11,36,17.10
2009,05,24,11,37,17.00
2009,05,24,11,38,17.00
2009,05,24,11,39,17.00
2009,05,24,11,40,17.10
2009,05,24,11,41,17.10
2009,05,24,11,42,17.20
2009,05,24,11,43,17.20
2009,05,24,11,44,17.30
2009,05,24,11,45,17.30
2009,05,24,11,46,17.30
2009,05,24,11,47,17.30
2009,05,24,11,48,17.30
2009,05,24,11,49,17.30
2009,05,24,11,50,17.30
2009,05,24,11,51,17.30
2009,05,24,11,52,17.30
2009,05,24,11,53,17.30
2009,05,24,11,54,17.40
2009,05,24,11,55,17.40
2009,05,24,11,56,17.40
2009,05,24,11,57,17.40
2009,05,24,11,58,17.40
2009,05,24,11,59,17.50
2009,05,24,12,00,17.50
2009,05,24,12,01,17.50
2009,05,24,12,02,17.60
2009,05,24,12,03,17.50
2009,05,24,12,04,17.50
2009,05,24,12,05,17.40
2009,05,24,12,06,17.40
2009,05,24,12,07,17.40
2009,05,24,12,08,17.40
2009,05,24,12,09,17.50
2009,05,24,12,10,17.50
2009,05,24,12,11,17.60
2009,05,24,12,12,17.60
2009,05,24,12,13,17.60
2009,05,24,12,14,17.60
2009,05,24,12,15,17.60
2009,05,24,12,16,17.70
2009,05,24,12,17,17.80
2009,05,24,12,18,17.80
2009,05,24,12,19,17.80
2009,05,24,12,20,17.80
2009,05,24,12,21,17.80
2009,05,24,12,22,17.90
2009,05,24,12,23,17.90
2009,05,24,12,24,17.90
2009,05,24,12,25,17.90
2009,05,24,12,26,17.80
2009,05,24,12,27,17.70
2009,05,24,12,28,17.60
2009,05,24,12,29,17.60
2009,05,24,12,30,17.60
2009,05,24,12,31,17.60
2009,05,24,12,32,17.60
2009,05,24,12,33,17.70
2009,05,24,12,34,17.80
2009,05,24,12,35,17.90
2009,05,24,12,36,17.90
2009,05,24,12,37,18.00
2009,05,24,12,38,18.00
2009,05,24,12,39,17.90
2009,05,24,12,40,17.80
2009,05,24,12,41,17.80
2009,05,24,12,42,17.70
2009,05,24,12,43,17.70
2009,05,24,12,44,17.70
2009,05,24,12,45,17.80
2009,05,24,12,46,17.80
2009,05,24,12,47,17.90
2009,05,24,12,48,18.00
2009,05,24,12,49,18.00
2009,05,24,12,50,18.10
2009,05,24,12,51,18.10
2009,05,24,12,52,18.10
2009,05,24,12,53,18.00
2009,05,24,12,54,18.00
2009,05,24,12,55,18.00
2009,05,24,12,56,18.00
2009,05,24,12,57,18.10
2009,05,24,12,58,18.10
2009,05,24,12,59,18.20
2009,05,24,13,00,18.20
2009,05,24,13,01,18.20
2009,05,24,13,02,18.10
2009,05,24,13,03,17.90
2009,05,24,13,04,17.90
2009,05,24,13,05,17.80
2009,05,24,13,06,17.80
2009,05,24,13,07,17.80
2009,05,24,13,08,17.80
2009,05,24,13,09,17.80
2009,05,24,13,10,17.80
2009,05,24,13,11,17.80
2009,05,24,13,12,17.80
2009,05,24,13,13,17.70
2009,05,24,13,14,17.60
2009,05,24,13,15,17.50
2009,05,24,13,16,17.60
2009,05,24,13,17,17.60
2009,05,24,13,18,17.50
2009,05,24,13,19,17.50
2009,05,24,13,20,17.50
2009,05,24,13,21,17.50
2009,05,24,13,22,17.60
2009,05,24,13,23,17.60
2009,05,24,13,24,17.70
2009,05,24,13,25,17.70
2009,05,24,13,26,17.70
2009,05,24,13,27,17.80
2009,05,24,13,28,17.80
2009,05,24,13,29,17.80
2009,05,24,13,30,17.80
2009,05,24,13,31,17.90
2009,05,24,13,32,18.00
2009,05,24,13,33,18.10
2009,05,24,13,34,18.20
2009,05,24,13,35,18.10
2009,05,24,13,36,18.00
2009,05,24,13,37,17.90
2009,05,24,13,38,17.90
2009,05,24,13,39,17.80
2009,05,24,13,40,17.80
2009,05,24,13,41,17.80
2009,05,24,13,42,17.90
2009,05,24,13,43,17.90
2009,05,24,13,44,17.90
2009,05,24,13,45,17.90
2009,05,24,13,46,17.90
2009,05,24,13,47,17.90
2009,05,24,13,48,18.00
2009,05,24,13,49,18.00
2009,05,24,13,50,18.10
2009,05,24,13,51,18.10
2009,05,24,13,52,18.20
2009,05,24,13,53,18.30
2009,05,24,13,54,18.20
2009,05,24,13,55,18.10
2009,05,24,13,56,18.10
2009,05,24,13,57,18.10
2009,05,24,13,58,18.10
2009,05,24,13,59,18.10
2009,05,24,14,00,18.20
2009,05,24,14,01,18.10
2009,05,24,14,02,18.10
2009,05,24,14,03,18.10
2009,05,24,14,04,18.10
2009,05,24,14,05,18.10
2009,05,24,14,06,18.20
2009,05,24,14,07,18.30
2009,05,24,14,08,18.30
2009,05,24,14,09,18.30
2009,05,24,14,10,18.40
2009,05,24,14,11,18.50
2009,05,24,14,12,18.50
2009,05,24,14,13,18.60
2009,05,24,14,14,18.70
2009,05,24,14,15,18.70
2009,05,24,14,16,18.70
2009,05,24,14,17,18.70
2009,05,24,14,18,18.70
2009,05,24,14,19,18.70
2009,05,24,14,20,18.60
2009,05,24,14,21,18.60
2009,05,24,14,22,18.60
2009,05,24,14,23,18.60
2009,05,24,14,24,18.60
2009,05,24,14,25,18.70
2009,05,24,14,26,18.60
2009,05,24,14,27,18.60
2009,05,24,14,28,18.60
2009,05,24,14,29,18.60
2009,05,24,14,30,18.60
2009,05,24,14,31,18.70
2009,05,24,14,32,18.70
2009,05,24,14,33,18.70
2009,05,24,14,34,18.70
2009,05,24,14,35,18.70
2009,05,24,14,36,18.70
2009,05,24,14,37,18.70
2009,05,24,14,38,18.80
2009,05,24,14,39,18.90
2009,05,24,14,40,19.00
2009,05,24,14,41,19.10
2009,05,24,14,42,19.20
2009,05,24,14,43,19.20
2009,05,24,14,44,19.20
2009,05,24,14,45,19.30
2009,05,24,14,46,19.30
2009,05,24,14,47,19.40
2009,05,24,14,48,19.40
2009,05,24,14,49,19.50
2009,05,24,14,50,19.50
2009,05,24,14,51,19.50
2009,05,24,14,52,19.40
2009,05,24,14,53,19.40
2009,05,24,14,54,19.40
2009,05,24,14,55,19.50
2009,05,24,14,56,19.50
2009,05,24,14,57,19.50
2009,05,24,14,58,19.50
2009,05,24,14,59,19.50
2009,05,24,15,00,19.50
2009,05,24,15,01,19.60
2009,05,24,15,02,19.60
2009,05,24,15,03,19.70
2009,05,24,15,04,19.70
2009,05,24,15,05,19.70
2009,05,24,15,06,19.70
2009,05,24,15,07,19.70
2009,05,24,15,08,19.80
2009,05,24,15,09,19.90
2009,05,24,15,10,19.90
2009,05,24,15,11,20.00
2009,05,24,15,12,20.10
2009,05,24,15,13,20.20
2009,05,24,15,14,20.40
2009,05,24,15,15,20.50
2009,05,24,15,16,20.60
2009,05,24,15,17,20.80
2009,05,24,15,18,20.90
2009,05,24,15,19,21.00
2009,05,24,15,20,20.90
2009,05,24,15,21,20.90
2009,05,24,15,22,20.80
2009,05,24,15,23,20.80
2009,05,24,15,24,20.80
2009,05,24,15,25,20.80
2009,05,24,15,26,20.70
2009,05,24,15,27,20.70
2009,05,24,15,28,20.80
2009,05,24,15,29,20.80
2009,05,24,15,30,20.80
2009,05,24,15,31,20.80
2009,05,24,15,32,20.90
2009,05,24,15,33,20.90
2009,05,24,15,34,21.00
2009,05,24,15,35,21.00
2009,05,24,15,36,21.00
2009,05,24,15,37,21.10
2009,05,24,15,38,21.10
2009,05,24,15,39,21.10
2009,05,24,15,40,21.10
2009,05,24,15,41,21.00
2009,05,24,15,42,21.00
2009,05,24,15,43,20.90
2009,05,24,15,44,20.90
2009,05,24,15,45,20.90
2009,05,24,15,46,20.80
2009,05,24,15,47,20.60
2009,05,24,15,48,20.50
2009,05,24,15,49,20.40
2009,05,24,15,50,20.40
2009,05,24,15,51,20.30
2009,05,24,15,52,20.30
2009,05,24,15,53,20.40
2009,05,24,15,54,20.50
2009,05,24,15,55,20.60
2009,05,24,15,56,20.70
2009,05,24,15,57,20.70
2009,05,24,15,58,20.70
2009,05,24,15,59,20.70
2009,05,24,16,00,20.70
2009,05,24,16,01,20.70
2009,05,24,16,02,20.70
2009,05,24,16,03,20.60
2009,05,24,16,04,20.60
2009,05,24,16,05,20.50
2009,05,24,16,06,20.50
2009,05,24,16,07,20.60
2009,05,24,16,08,20.60
2009,05,24,16,09,20.60
2009,05,24,16,10,20.60
2009,05,24,16,11,20.60
2009,05,24,16,12,20.60
2009,05,24,16,13,20.70
2009,05,24,16,14,20.70
2009,05,24,16,15,20.80
2009,05,24,16,16,20.80
2009,05,24,16,17,20.80
2009,05,24,16,18,20.80
2009,05,24,16,19,20.80
2009,05,24,16,20,20.80
2009,05,24,16,21,20.80
2009,05,24,16,22,20.70
2009,05,24,16,23,20.60
2009,05,24,16,24,20.60
2009,05,24,16,25,20.60
2009,05,24,16,26,20.70
2009,05,24,16,27,20.70
2009,05,24,16,28,20.80
2009,05,24,16,29,20.90
2009,05,24,16,30,20.90
2009,05,24,16,31,21.00
2009,05,24,16,32,21.10
2009,05,24,16,33,21.20
2009,05,24,16,34,21.30
2009,05,24,16,35,21.40
2009,05,24,16,36,21.50
2009,05,24,16,37,21.60
2009,05,24,16,38,21.60
2009,05,24,16,39,21.70
2009,05,24,16,40,21.80
2009,05,24,16,41,21.80
2009,05,24,16,42,21.90
2009,05,24,16,43,22.00
2009,05,24,16,44,22.20
2009,05,24,16,45,22.20
2009,05,24,16,46,22.30
2009,05,24,16,47,22.40
2009,05,24,16,48,22.40
2009,05,24,16,49,22.40
2009,05,24,16,50,22.30
2009,05,24,16,51,22.30
2009,05,24,16,52,22.30
2009,05,24,16,53,22.30
2009,05,24,16,54,22.30
2009,05,24,16,55,22.20
2009,05,24,16,56,22.20
2009,05,24,16,57,22.20
2009,05,24,16,58,22.10
2009,05,24,16,59,22.10
2009,05,24,17,00,22.00
2009,05,24,17,01,22.00
2009,05,24,17,02,21.90
2009,05,24,17,03,21.90
2009,05,24,17,04,21.80
2009,05,24,17,05,21.80
2009,05,24,17,06,21.70
2009,05,24,17,07,21.60
2009,05,24,17,08,21.60
2009,05,24,17,09,21.60
2009,05,24,17,10,21.60
2009,05,24,17,11,21.50
2009,05,24,17,12,21.40
2009,05,24,17,13,21.30
2009,05,24,17,14,21.20
2009,05,24,17,15,21.10
2009,05,24,17,16,21.10
2009,05,24,17,17,21.00
2009,05,24,17,18,20.90
2009,05,24,17,19,20.90
2009,05,24,17,20,20.90
2009,05,24,17,21,20.90
2009,05,24,17,22,20.90
2009,05,24,17,23,20.80
2009,05,24,17,24,20.80
2009,05,24,17,25,20.70
2009,05,24,17,26,20.70
2009,05,24,17,27,20.70
2009,05,24,17,28,20.70
2009,05,24,17,29,20.60
2009,05,24,17,30,20.60
2009,05,24,17,31,20.60
2009,05,24,17,32,20.60
2009,05,24,17,33,20.50
2009,05,24,17,34,20.40
2009,05,24,17,35,20.30